Simultaneous Nadir Overpasses (SNOs) Predictions

Prediction of SNOs between LANDSAT-8 and NPP Satellite Orbit:

Table of predicted SNOs for the next 14.0 days since TLE Epoch: 11/24/2013
Index Date (LANDSAT-8) Time (LANDSAT-8) Lat,Lon (LANDSAT-8) SZA (LANDSAT-8 ) Date (NPP) Time (NPP) Lat,Lon (NPP) SZA (NPP ) Distance(km) Time Diff (sec)
1 11/24/2013 14:43:31 -70.13, 135.96 89.33 11/24/2013 14:42:18 -70.14, 135.93 89.32 1.20 73
2 11/24/2013 15:32:58 70.02, -56.55 90.58 11/24/2013 15:33:02 70.02, -56.57 90.57 1.10 4
3 11/24/2013 16:22:30 -69.81, 110.79 89.64 11/24/2013 16:23:42 -69.82, 111.04 89.62 9.91 72
4 11/27/2013 07:00:04 -70.11,-108.21 88.84 11/27/2013 06:59:18 -70.11,-108.27 88.84 2.12 46
5 11/27/2013 07:49:31 70.00, 59.28 91.06 11/27/2013 07:50:02 70.00, 59.22 91.06 2.01 31
6 11/29/2013 22:26:57 70.91,-158.81 92.42 11/29/2013 22:25:50 70.93,-161.14 92.45 84.52 67
7 11/29/2013 23:16:41 -70.05, 7.55 88.44 11/29/2013 23:16:17 -70.05, 7.60 88.44 1.86 24
8 11/30/2013 00:06:08 69.94, 175.04 91.46 11/30/2013 00:07:01 69.93, 175.08 91.45 1.96 53
9 12/02/2013 14:43:50 70.15, -44.11 92.07 12/02/2013 14:42:36 70.19, -44.18 92.12 5.54 74
10 12/02/2013 15:33:20 -70.06, 123.40 88.01 12/02/2013 15:33:17 -70.04, 123.37 88.03 2.67 3
11 12/02/2013 16:22:48 69.90, -69.19 91.83 12/02/2013 16:24:00 69.87, -69.07 91.81 5.09 72
12 12/05/2013 07:00:32 70.13, 71.68 92.41 12/05/2013 06:59:34 70.15, 71.65 92.44 2.69 58
13 12/05/2013 07:50:02 -70.04,-120.81 87.67 12/05/2013 07:50:16 -70.05,-120.88 87.66 2.89 14
14 12/05/2013 08:39:40 69.32, 45.85 91.62 12/05/2013 08:40:48 69.30, 47.54 91.59 66.12 68
15 12/07/2013 23:17:18 70.12,-172.53 92.72 12/07/2013 23:16:33 70.11,-172.53 92.71 0.86 45
16 12/08/2013 00:06:49 -69.99, -5.08 87.42 12/08/2013 00:07:15 -70.01, -5.06 87.39 2.96 26




NCC Satellite Simultaneous Nadir Overpasses (SNOs) Prediction Service
